Terminal Aerodrome Forecast
Issued by NWS Amarillo, TX

Home | Current Version | Previous Version | Text Only | Print | Product List | Glossary On
Versions: 1 2 3 4 5 6 7 8 9 10 11 12 13 14 15 16 17 18 19 20 21 22 23 24 25 26 27
000
FTUS44 KAMA 012300
TAFAMA
TAF
KAMA 012320Z 0200/0224 01011KT P6SM SCT040
      TEMPO 0208/0212 BKN040
     FM021400 20016G26KT P6SM SCT050
     FM022300 18008KT P6SM FEW050=

USA.gov is the U.S. government's official web portal to all federal, state and local government web resources and services.